EW0608 Weather Reports


Display with metric or nautical units.
time (UTC)temp
F
wind
direction
speed
MPH
gust
MPH
rain 1hr
in
rain 24hr
in
rain mn
in
humidity
%
barometer
mb
20260903033346 73 5 0.0 0.0 0.00 0.00 0.00 92 1016.4
20260903033042 72 5 0.0 0.0 0.00 0.00 0.00 92 1015.1
20260903032840 73 5 0.0 0.0 0.00 0.00 0.00 92 1016.4
20260903032412 73 5 0.0 0.0 0.00 0.00 0.00 92 1016.4
20260903031842 73 5 0.0 0.0 0.00 0.00 0.00 92 1016.4
20260903031537 73 5 0.0 0.0 0.00 0.00 0.00 92 1015.0
20260903031335 73 5 0.0 0.0 0.00 0.00 0.00 92 1016.4
20260903030849 73 5 0.0 0.0 0.00 0.00 0.00 92 1016.4
20260903030342 73 5 0.0 0.0 0.00 0.00 0.00 92 1016.5
20260903030053 73 5 0.0 0.0 0.00 0.00 0.00 91 1015.2
20260903025852 74 5 0.0 0.0 0.00 0.00 0.00 91 1016.5
20260903025345 74 5 0.0 0.0 0.00 0.00 0.00 91 1016.4
20260903024841 74 5 0.0 0.0 0.00 0.00 0.00 91 1016.5
20260903024554 73 5 0.0 0.0 0.00 0.00 0.00 91 1015.1
20260903024354 74 5 0.0 0.0 0.00 0.00 0.00 91 1016.4
20260903023846 74 5 0.0 0.0 0.00 0.00 0.00 91 1016.4
20260903023339 74 5 0.0 0.0 0.00 0.00 0.00 91 1016.4
20260903023051 74 5 0.0 0.0 0.00 0.00 0.00 91 1015.1
20260903022851 74 5 0.0 0.0 0.00 0.00 0.00 91 1016.4
20260903021854 75 5 0.0 0.0 0.00 0.00 0.00 90 1016.3
20260903021548 74 5 0.0 0.0 0.00 0.00 0.00 90 1015.1
20260903021348 75 5 0.0 0.0 0.00 0.00 0.00 90 1016.4
20260903020356 75 5 0.0 0.0 0.00 0.00 0.00 90 1016.3
20260903020048 74 5 0.0 0.0 0.00 0.00 0.00 90 1015.0
20260903015845 75 5 0.0 0.0 0.00 0.00 0.00 90 1016.3
20260903015337 75 5 0.0 0.0 0.00 0.00 0.00 90 1016.2
20260903014910 75 5 0.0 0.0 0.00 0.00 0.00 89 1016.2
20260903014554 75 5 0.0 0.0 0.00 0.00 0.00 89 1014.9
20260903014341 75 5 0.0 0.0 0.00 0.00 0.00 89 1016.3
20260903013854 75 5 0.0 0.0 0.00 0.00 0.00 89 1016.5
20260903013348 76 5 0.0 0.0 0.00 0.00 0.00 89 1016.5
20260903013042 75 5 0.0 0.0 0.00 0.00 0.00 88 1015.2
20260903012841 76 5 0.0 0.0 0.00 0.00 0.00 88 1016.5
20260903012354 76 5 0.0 0.0 0.00 0.00 0.00 88 1016.5
20260903011847 76 5 0.0 0.0 0.00 0.00 0.00 88 1016.5
20260903011541 76 5 0.0 0.0 0.00 0.00 0.00 88 1015.1
20260903011341 76 5 0.0 0.0 0.00 0.00 0.00 88 1016.6
20260903010854 76 5 327.0 327.0 0.00 0.00 0.00 88 1016.2
20260903010349 76 5 0.0 0.0 0.00 0.00 0.00 88 1016.4
20260903010040 76 5 0.0 0.0 0.00 0.00 0.00 88 1015.1
20260903005939 76 5 0.0 0.0 0.00 0.00 0.00 88 1016.5
20260903005406 76 5 0.0 0.0 0.00 0.00 0.00 88 1016.5
20260903004550 76 5 0.0 0.0 0.00 0.00 0.00 89 1015.2
20260903004349 77 5 0.0 0.0 0.00 0.00 0.00 88 1016.5
20260903003839 77 5 0.0 0.0 0.00 0.00 0.00 88 1016.7
20260903003352 77 5 0.0 0.0 0.00 0.00 0.00 88 1016.7
20260903003049 76 5 0.0 0.0 0.00 0.00 0.00 88 1015.3
20260903002359 77 5 0.0 1.0 0.00 0.00 0.00 88 1016.7
20260903001851 77 5 0.0 2.0 0.00 0.00 0.00 88 1016.7
20260903001545 76 5 0.0 2.0 0.00 0.00 0.00 88 1015.3
20260903001343 77 5 1.0 2.0 0.00 0.00 0.00 88 1016.7
20260903000836 77 5 0.0 2.0 0.00 0.00 0.00 88 1016.7
20260903000349 77 5 1.0 2.0 0.00 0.00 0.00 88 1016.7
20260903000038 77 5 0.0 1.0 0.00 0.00 0.00 88 1015.4
20260902235838 78 5 0.0 0.0 0.00 0.00 0.00 88 1016.8
20260902235350 78 5 0.0 0.0 0.00 0.00 0.00 87 1016.8
20260902234843 78 5 0.0 0.0 0.00 0.00 0.00 87 1017.0
20260902234538 77 5 0.0 0.0 0.00 0.00 0.00 87 1015.6
20260902234337 78 5 0.0 0.0 0.00 0.00 0.00 87 1017.0
20260902233851 78 5 0.0 0.0 0.00 0.00 0.00 87 1016.8
20260902233343 79 5 0.0 1.0 0.00 0.00 0.00 86 1016.7
20260902233034 78 5 0.0 2.0 0.00 0.00 0.00 85 1015.3
20260902232341 79 5 1.0 2.0 0.00 0.00 0.00 85 1016.8
20260902231854 80 263 0.0 0.0 0.00 0.00 0.00 86 1016.7
20260902231511 79 263 0.0 0.0 0.00 0.00 0.00 85 1015.2
20260902231407 80 263 0.0 0.0 0.00 0.00 0.00 85 1016.6
20260902230837 80 263 0.0 2.0 0.00 0.00 0.00 85 1016.7
20260902230350 80 263 0.0 2.0 0.00 0.00 0.00 83 1016.6
20260902230042 80 263 0.0 2.0 0.00 0.00 0.00 85 1015.2
20260902225840 80 263 0.0 2.0 0.00 0.00 0.00 85 1016.6
20260902225352 80 263 0.0 1.0 0.00 0.00 0.00 85 1016.8
20260902224843 80 263 0.0 3.0 0.00 0.00 0.00 84 1016.7
20260902224557 80 263 0.0 3.0 0.00 0.00 0.00 84 1015.2
20260902224355 80 263 1.0 3.0 0.00 0.00 0.00 85 1016.6
20260902223848 81 55 0.0 0.0 0.00 0.00 0.00 84 1016.6
20260902223345 81 55 0.0 0.0 0.00 0.00 0.00 82 1016.5
20260902223115 81 55 0.0 0.0 0.00 0.00 0.00 83 1015.1
20260902222858 81 55 0.0 0.0 0.00 0.00 0.00 83 1016.5
20260902222350 82 55 0.0 0.0 0.00 0.00 0.00 81 1016.4
20260902221843 81 55 0.0 0.0 0.00 0.00 0.00 82 1016.3
20260902221558 81 55 0.0 0.0 0.00 0.00 0.00 84 1015.0
20260902221356 82 55 0.0 1.0 0.00 0.00 0.00 83 1016.4
20260902220847 82 55 0.0 1.0 0.00 0.00 0.00 81 1016.3
20260902220342 82 55 0.0 2.0 0.00 0.00 0.00 81 1016.2
20260902220012 82 55 0.0 2.0 0.00 0.00 0.00 80 1014.7
20260902215851 82 55 0.0 3.0 0.00 0.00 0.00 81 1016.2
20260902215342 83 55 1.0 3.0 0.00 0.00 0.00 80 1016.2
20260902214955 82 58 0.0 1.0 0.00 0.00 0.00 80 1016.2
20260902214544 82 260 0.0 0.0 0.00 0.00 0.00 80 1014.8
20260902214342 82 260 0.0 0.0 0.00 0.00 0.00 81 1016.2
20260902213855 83 57 0.0 3.0 0.00 0.00 0.00 79 1016.4
20260902213347 83 57 1.0 3.0 0.00 0.00 0.00 78 1016.4
20260902213041 82 66 0.0 0.0 0.00 0.00 0.00 80 1015.1
20260902212841 83 66 0.0 2.0 0.00 0.00 0.00 79 1016.5
20260902212353 83 93 0.0 4.0 0.00 0.00 0.00 79 1016.4
20260902211847 83 245 1.0 4.0 0.00 0.00 0.00 79 1016.5
20260902211540 82 73 0.0 4.0 0.00 0.00 0.00 80 1015.2
20260902211339 83 73 0.0 4.0 0.00 0.00 0.00 81 1016.6
20260902210853 82 37 2.0 3.0 0.00 0.00 0.00 82 1016.7
20260902210346 83 238 0.0 4.0 0.00 0.00 0.00 80 1016.8
20260902205856 82 238 1.0 0.0 0.00 0.00 0.00 79 1016.3
20260902205346 82 30 0.0 4.0 0.00 0.00 0.00 79 1016.8
20260902204839 82 30 2.0 4.0 0.00 0.00 0.00 79 1017.0
20260902204554 82 40 1.0 3.0 0.00 0.00 0.00 79 1015.6
20260902204352 82 53 1.0 3.0 0.00 0.00 0.00 80 1017.0
20260902203842 83 22 1.0 4.0 0.00 0.00 0.00 81 1016.9
20260902203355 82 288 2.0 4.0 0.00 0.00 0.00 79 1016.8
20260902203050 82 231 0.0 4.0 0.00 0.00 0.00 78 1015.4
20260902202848 82 94 1.0 4.0 0.00 0.00 0.00 78 1016.9
20260902202343 83 291 2.0 4.0 0.00 0.00 0.00 80 1017.0
20260902201835 82 5 1.0 3.0 0.00 0.00 0.00 80 1016.9
20260902201509 82 271 0.0 3.0 0.00 0.00 0.00 79 1015.4
20260902201410 83 311 1.0 3.0 0.00 0.00 0.00 79 1016.8
20260902200841 83 347 1.0 6.0 0.00 0.00 0.00 80 1017.0
20260902200339 83 252 2.0 6.0 0.00 0.00 0.00 78 1017.2
20260902200051 82 221 1.0 4.0 0.00 0.00 0.00 79 1015.7
20260902195848 83 288 1.0 4.0 0.00 0.00 0.00 79 1017.2
20260902195341 83 23 2.0 4.0 0.00 0.00 0.00 77 1017.2
20260902194853 84 136 1.0 4.0 0.00 0.00 0.00 76 1017.0
20260902194547 83 9 0.0 3.0 0.00 0.00 0.00 75 1015.5
20260902194346 83 79 1.0 3.0 0.00 0.00 0.00 78 1016.9
20260902193836 83 225 327.0 327.0 0.00 0.00 0.00 78 1016.5
20260902193350 82 304 1.0 2.0 0.00 0.00 0.00 80 1016.9
20260902193044 81 59 0.0 2.0 0.00 0.00 0.00 81 1015.5
20260902192843 82 59 0.0 2.0 0.00 0.00 0.00 82 1016.9
20260902192356 82 59 1.0 3.0 0.00 0.00 0.00 80 1016.8
20260902191848 82 59 0.0 3.0 0.00 0.00 0.00 83 1016.9
20260902191542 81 59 0.0 4.0 0.00 0.00 0.00 81 1015.4
20260902191342 82 59 0.0 4.0 0.00 0.00 0.00 80 1016.9
20260902190914 82 350 1.0 4.0 0.00 0.00 0.00 82 1017.1
20260902190348 81 355 0.0 2.0 0.00 0.00 0.00 86 1017.3
20260902190023 79 355 0.0 2.0 0.00 0.00 0.00 87 1015.9
20260902185917 79 355 0.0 2.0 0.00 0.00 0.00 87 1017.4
20260902185349 79 320 0.0 5.0 0.00 0.00 0.00 88 1017.5
20260902184900 79 80 1.0 5.0 0.00 0.00 0.00 88 1017.6
20260902184613 78 13 1.0 5.0 0.00 0.00 0.00 88 1016.3
20260902184351 79 74 1.0 3.0 0.00 0.00 0.00 89 1017.9
20260902183845 78 314 0.0 3.0 0.00 0.00 0.00 89 1017.7
20260902183337 78 360 0.0 2.0 0.00 0.00 0.00 92 1017.6
20260902183102 77 360 0.0 2.0 0.00 0.00 0.00 91 1016.2
20260902182850 78 360 1.0 2.0 0.00 0.00 0.00 92 1017.6
20260902182341 77 360 0.0 1.0 0.00 0.00 0.00 92 1017.5
20260902181914 77 360 0.0 3.0 0.00 0.00 0.00 91 1017.6
20260902181546 77 360 0.0 3.0 0.00 0.00 0.00 92 1016.0
20260902181345 77 360 1.0 3.0 0.00 0.00 0.00 91 1017.5
20260902180838 78 46 2.0 3.0 0.00 0.00 0.00 91 1017.7
20260902180349 78 215 2.0 3.0 0.00 0.00 0.00 89 1018.0
20260902180043 78 338 1.0 6.0 0.00 0.00 0.00 87 1016.7
20260902175839 79 338 2.0 7.0 0.00 0.00 0.00 87 1018.1
20260902175411 82 339 3.0 7.0 0.00 0.00 0.00 81 1017.5
20260902174843 87 236 1.0 5.0 0.00 0.00 0.00 73 1017.3
20260902174515 89 15 1.0 5.0 0.00 0.00 0.00 72 1015.5
20260902174414 90 85 3.0 5.0 0.00 0.00 0.00 72 1017.0
20260902173846 90 129 1.0 4.0 0.00 0.00 0.00 66 1016.9
20260902173400 90 236 1.0 4.0 0.00 0.00 0.00 64 1016.9
20260902173051 89 225 2.0 4.0 0.00 0.00 0.00 65 1015.4
20260902172851 89 208 1.0 2.0 0.00 0.00 0.00 69 1017.0
20260902172405 89 208 0.0 2.0 0.00 0.00 0.00 67 1017.2
20260902171855 89 208 0.0 2.0 0.00 0.00 0.00 72 1017.3
20260902171549 89 208 0.0 1.0 0.00 0.00 0.00 69 1016.0
20260902171349 89 208 0.0 2.0 0.00 0.00 0.00 71 1017.4
20260902170840 89 208 0.0 4.0 0.00 0.00 0.00 66 1017.5
20260902170340 89 215 1.0 4.0 0.00 0.00 0.00 62 1017.6
20260902170052 89 223 0.0 3.0 0.00 0.00 0.00 64 1016.1
20260902165848 89 161 1.0 3.0 0.00 0.00 0.00 63 1017.6
20260902165341 90 111 1.0 3.0 0.00 0.00 0.00 64 1017.6
20260902164914 90 84 1.0 5.0 0.00 0.00 0.00 62 1017.7
20260902164509 90 232 1.0 5.0 0.00 0.00 0.00 59 1016.4
20260902164406 91 210 2.0 5.0 0.00 0.00 0.00 61 1017.9
20260902163837 91 237 1.0 4.0 0.00 0.00 0.00 62 1017.7
20260902163410 91 78 2.0 3.0 0.00 0.00 0.00 64 1017.8
20260902163001 90 202 1.0 4.0 0.00 0.00 0.00 63 1016.4
20260902162900 90 206 2.0 4.0 0.00 0.00 0.00 62 1018.0
20260902162352 90 194 1.0 3.0 0.00 0.00 0.00 62 1018.0
20260902161845 90 194 1.0 3.0 0.00 0.00 0.00 63 1018.0
20260902161538 89 185 1.0 3.0 0.00 0.00 0.00 63 1016.6
20260902161337 90 240 1.0 3.0 0.00 0.00 0.00 65 1018.1
20260902160850 89 118 1.0 3.0 0.00 0.00 0.00 67 1018.1
20260902160343 89 49 2.0 5.0 0.00 0.00 0.00 67 1018.2
20260902160054 88 46 1.0 5.0 0.00 0.00 0.00 66 1016.7
20260902155853 88 214 1.0 5.0 0.00 0.00 0.00 66 1018.2
20260902155347 88 44 2.0 4.0 0.00 0.00 0.00 69 1018.0
20260902154838 87 355 2.0 5.0 0.00 0.00 0.00 73 1018.0
20260902154551 87 101 2.0 5.0 0.00 0.00 0.00 72 1016.5
20260902154350 86 214 1.0 0.0 0.00 0.00 0.00 74 1017.6
20260902153842 86 177 0.0 2.0 0.00 0.00 0.00 75 1018.0
20260902153354 85 175 0.0 0.0 0.00 0.00 0.00 82 1017.9
20260902153007 84 175 0.0 0.0 0.00 0.00 0.00 83 1016.5
20260902152907 85 175 0.0 0.0 0.00 0.00 0.00 82 1018.0
20260902152339 83 175 0.0 0.0 0.00 0.00 0.00 88 1018.0
20260902151851 82 175 0.0 0.0 0.00 0.00 0.00 89 1018.1
20260902151551 81 175 0.0 0.0 0.00 0.00 0.00 89 1016.7
20260902151344 81 175 0.0 0.0 0.00 0.00 0.00 89 1018.2
20260902150837 81 175 0.0 0.0 0.00 0.00 0.00 88 1018.1
20260902150430 81 175 0.0 0.0 0.00 0.00 0.00 87 1018.1
20260902150057 81 175 0.0 0.0 0.00 0.00 0.00 87 1016.7
20260902145855 81 175 0.0 0.0 0.00 0.00 0.00 88 1018.1
20260902145347 81 175 0.0 0.0 0.00 0.00 0.00 87 1018.0
20260902144840 81 175 0.0 0.0 0.00 0.00 0.00 87 1018.0
20260902144553 80 175 0.0 0.0 0.00 0.00 0.00 88 1016.6
20260902144353 80 175 0.0 0.0 0.00 0.00 0.00 88 1018.0
20260902143846 80 175 0.0 0.0 0.00 0.00 0.00 88 1018.0
20260902143338 79 175 0.0 0.0 0.00 0.00 0.00 88 1018.0
20260902143056 79 175 0.0 0.0 0.00 0.00 0.00 87 1016.5
20260902142851 79 175 0.0 0.0 0.00 0.00 0.00 88 1018.0
20260902142343 78 175 0.0 0.0 0.00 0.00 0.00 90 1018.0
20260902141842 77 175 0.0 0.0 0.00 0.00 0.00 91 1018.0
20260902141539 76 175 0.0 0.0 0.00 0.00 0.00 91 1016.7
20260902141336 77 175 0.0 0.0 0.00 0.00 0.00 92 1018.1
20260902140848 76 175 0.0 0.0 0.00 0.00 0.00 93 1018.2
20260902140342 75 175 0.0 0.0 0.00 0.00 0.00 94 1018.2
20260902140051 74 175 0.0 0.0 0.00 0.00 0.00 94 1016.7
20260902135850 75 175 0.0 0.0 0.00 0.00 0.00 94 1018.1
20260902135343 74 175 0.0 0.0 0.00 0.00 0.00 94 1018.2
20260902134836 74 175 0.0 0.0 0.00 0.00 0.00 94 1018.1
20260902134602 73 175 0.0 0.0 0.00 0.00 0.00 94 1016.7
20260902134348 74 175 0.0 0.0 0.00 0.00 0.00 94 1018.2
20260902133840 74 175 0.0 0.0 0.00 0.00 0.00 95 1018.3
20260902133352 74 175 0.0 0.0 0.00 0.00 0.00 95 1018.3
20260902133049 73 175 0.0 0.0 0.00 0.00 0.00 95 1016.9
20260902132846 73 175 0.0 0.0 0.00 0.00 0.00 95 1018.4
20260902132339 72 175 0.0 0.0 0.00 0.00 0.00 95 1018.4
20260902131851 71 175 0.0 0.0 0.00 0.00 0.00 95 1018.3
20260902131549 71 175 0.0 0.0 0.00 0.00 0.00 95 1016.9
20260902131344 71 175 0.0 0.0 0.00 0.00 0.00 95 1018.3
20260902130837 71 175 0.0 0.0 0.00 0.00 0.00 95 1018.3
20260902130410 71 175 0.0 0.0 0.00 0.00 0.00 95 1018.3
20260902130040 70 175 0.0 0.0 0.00 0.00 0.00 95 1016.9
20260902125840 71 175 0.0 0.0 0.00 0.00 0.00 95 1018.4
20260902125352 70 175 0.0 0.0 0.00 0.00 0.00 95 1018.4
20260902124846 70 175 0.0 0.0 0.00 0.00 0.00 95 1018.5
20260902124538 70 175 0.0 0.0 0.00 0.00 0.00 95 1017.1
20260902124338 70 175 0.0 0.0 0.00 0.00 0.00 95 1018.5
20260902123910 70 175 0.0 0.0 0.00 0.00 0.00 95 1018.3
20260902123340 70 175 0.0 0.0 0.00 0.00 0.00 95 1018.2
20260902123054 69 175 0.0 0.0 0.00 0.00 0.00 95 1016.8
20260902122854 70 175 0.0 0.0 0.00 0.00 0.00 95 1018.2
20260902122345 70 175 0.0 0.0 0.00 0.00 0.00 95 1018.1
20260902121842 70 175 0.0 0.0 0.00 0.00 0.00 95 1018.1
20260902121602 69 175 0.0 0.0 0.00 0.00 0.00 95 1016.7
20260902121354 70 175 0.0 0.0 0.00 0.00 0.00 95 1018.1
20260902120847 70 175 0.0 0.0 0.00 0.00 0.00 95 1018.1
20260902120341 70 175 0.0 0.0 0.00 0.00 0.00 95 1018.1
20260902120011 69 175 0.0 0.0 0.00 0.00 0.00 95 1016.8
20260902115910 70 175 0.0 0.0 0.00 0.00 0.00 95 1018.2
20260902115341 69 175 0.0 0.0 0.00 0.00 0.00 94 1018.2
20260902114854 69 175 0.0 0.0 0.00 0.00 0.00 94 1018.2
20260902114556 69 175 0.0 0.0 0.00 0.00 0.00 95 1016.8
20260902114348 69 175 0.0 0.0 0.00 0.00 0.00 95 1018.1
20260902113017 69 175 0.0 0.0 0.00 0.00 0.00 94 1016.7
20260902111516 69 175 0.0 0.0 0.00 0.00 0.00 94 1016.7
20260902110012 69 175 0.0 0.0 0.00 0.00 0.00 94 1016.6
20260902104516 69 175 0.0 0.0 0.00 0.00 0.00 94 1016.6
20260902103011 69 175 0.0 0.0 0.00 0.00 0.00 94 1016.7
20260902101513 69 175 0.0 0.0 0.00 0.00 0.00 94 1016.7
20260902100009 70 175 0.0 0.0 0.00 0.00 0.00 94 1016.7
20260902094509 70 175 0.0 0.0 0.00 0.00 0.00 94 1016.6
20260902093006 70 175 0.0 0.0 0.00 0.00 0.00 94 1016.5
20260902091512 70 175 0.0 0.0 0.00 0.00 0.00 94 1016.5
20260902090005 70 175 0.0 0.0 0.00 0.00 0.00 94 1016.6
20260902084504 70 175 0.0 0.0 0.00 0.00 0.00 94 1016.7
20260902083002 71 175 0.0 0.0 0.00 0.00 0.00 93 1016.7
20260902081501 71 175 0.0 0.0 0.00 0.00 0.00 93 1016.5
20260902080114 71 175 0.0 0.0 0.00 0.00 0.00 93 1016.2
20260902074611 71 175 0.0 0.0 0.00 0.00 0.00 93 1016.2
20260902073110 71 175 0.0 3.0 0.00 0.00 0.00 93 1016.0
20260902071614 71 175 0.0 0.0 0.00 0.00 0.00 93 1016.4
20260902070058 71 175 0.0 0.0 0.00 0.00 0.00 93 1016.0
20260902064600 71 175 0.0 0.0 0.00 0.00 0.00 93 1016.0
20260902063059 71 175 0.0 0.0 0.00 0.00 0.00 93 1016.3
20260902061608 71 175 0.0 0.0 0.00 0.00 0.00 93 1016.3
20260902060055 71 175 0.0 0.0 0.00 0.00 0.00 93 1016.5
20260902054555 71 175 0.0 0.0 0.00 0.00 0.00 93 1016.5
20260902053055 71 175 0.0 0.0 0.00 0.00 0.00 93 1016.5
20260902051853 71 175 0.0 0.0 0.00 0.00 0.00 93 1017.9
20260902051508 71 175 0.0 0.0 0.00 0.00 0.00 93 1016.5
20260902051406 71 175 0.0 0.0 0.00 0.00 0.00 93 1017.8
20260902050857 71 175 0.0 0.0 0.00 0.00 0.00 93 1017.8
20260902050351 71 175 0.0 0.0 0.00 0.00 0.00 93 1017.8
20260902050046 71 175 0.0 0.0 0.00 0.00 0.00 93 1016.4
20260902045840 71 175 0.0 0.0 0.00 0.00 0.00 93 1017.7
20260902045353 71 175 0.0 0.0 0.00 0.00 0.00 93 1017.7
20260902044845 71 175 0.0 0.0 0.00 0.00 0.00 93 1017.7
20260902044559 71 175 0.0 0.0 0.00 0.00 0.00 93 1016.3
20260902044359 71 175 0.0 0.0 0.00 0.00 0.00 93 1017.6
20260902043852 71 175 0.0 0.0 0.00 0.00 0.00 93 1017.5
20260902043403 71 175 0.0 0.0 0.00 0.00 0.00 93 1017.4
20260902043037 71 175 0.0 0.0 0.00 0.00 0.00 93 1016.0
20260902042837 71 175 0.0 0.0 0.00 0.00 0.00 93 1017.3
20260902042409 71 175 0.0 0.0 0.00 0.00 0.00 93 1017.3
20260902041839 71 175 0.0 0.0 0.00 0.00 0.00 93 1017.2
20260902041514 71 175 0.0 0.0 0.00 0.00 0.00 93 1015.7
20260902041350 72 175 0.0 0.0 0.00 0.00 0.00 93 1017.0
20260902040841 72 175 0.0 0.0 0.00 0.00 0.00 93 1017.0
20260902040355 72 175 0.0 0.0 0.00 0.00 0.00 93 1016.9
20260902040045 71 175 0.0 0.0 0.00 0.00 0.00 93 1015.4
20260902035844 72 175 0.0 0.0 0.00 0.00 0.00 93 1016.9
20260902035337 72 175 0.0 0.0 0.00 0.00 0.00 93 1016.8
20260902034849 72 175 0.0 0.0 0.00 0.00 0.00 93 1016.6
20260902034547 71 175 0.0 0.0 0.00 0.00 0.00 93 1015.3
20260902034347 72 175 0.0 0.0 0.00 0.00 0.00 93 1016.6
20260902033841 72 175 0.0 0.0 0.00 0.00 0.00 93 1016.6